Weather History for PAWM - August, 2013

Change the Weather History Date:

Thursday, August 29, 2013

  Actual Average (PAKK) Record (PAKK)
Temperature  
Mean Temperature 42 °F -  
Max Temperature 52 °F 54 °F 66 °F (2001)
Min Temperature 32 °F 42 °F 30 °F (2008)
Degree Days  
Heating Degree Days 24    
Moisture  
Dew Point -16 °F    
Average Humidity 8    
Maximum Humidity 10    
Minimum Humidity 7    
Precipitation  
Precipitation 0.00 in - - ()
Sea Level Pressure  
Sea Level Pressure 29.95 in    
Wind  
Wind Speed 8 mph (NNW)    
Max Wind Speed 13 mph    
Max Gust Speed -    
Visibility 10 miles    
Events      
Averages and records for this station are not official NWS values.
T = Trace of Precipitation, MM = Missing Value Source: NWS Daily Summary

Daily Weather History Graph

Daily Weather History Graph

Search for Another Location

Airport or City:

Trip Planner

Search our weather history database for the weather conditions in past years. The results will help you decide how hot, cold, wet, or windy it might be!

Date:

Astronomy

Aug. 29, 2013 Rise Set
Actual Time 7:26 AM AKDT 10:20 PM AKDT
Civil Twilight 6:30 AM AKDT 11:15 PM AKDT
Nautical Twilight 5:08 AM AKDT 12:35 AM AKDT
Astronomical Twilight 3:26 AM AKDT 2:21 AM AKDT
Moon 12:09 AM AKDT (8/29) 7:17 PM AKDT (8/29)
Length of Visible Light 16h 45m
Length of Day
14h 53m
Last Quarter, 36% of the Moon is Illuminated
Aug 29
Last Quarter
Sep 5
New
Sep 12
First Quarter
Sep 19
Full
Sep 26
Last Quarter

Hourly Weather History & Observations

Time (AKDT) Temp. Windchill Dew Point Humidity Pressure Visibility Wind Dir Wind Speed Gust Speed Precip Events Conditions
12:58 AM 42.1 °F 37.7 °F -18.0 °F 7% 29.84 in 10.0 mi NNW 6.9 mph - N/A   Overcast
1:58 AM 39.0 °F 32.8 °F -20.9 °F 7% 29.85 in 10.0 mi NNW 9.2 mph - N/A   Mostly Cloudy
2:58 AM 37.0 °F 29.8 °F -24.0 °F 7% 29.86 in 10.0 mi NNW 10.4 mph - N/A   Mostly Cloudy
3:58 AM 37.9 °F 32.7 °F -23.1 °F 7% 29.88 in 10.0 mi North 6.9 mph - N/A   Overcast
4:58 AM 37.0 °F 31.0 °F -23.1 °F 7% 29.89 in 10.0 mi NNW 8.1 mph - N/A   Overcast
5:58 AM 36.0 °F 29.0 °F -25.1 °F 7% 29.91 in 10.0 mi NNW 9.2 mph - N/A   Overcast
6:58 AM 32.0 °F 23.6 °F -24.0 °F 8% 29.92 in 10.0 mi NNW 10.4 mph - N/A   Clear
7:58 AM 32.0 °F 23.0 °F -25.1 °F 8% 29.93 in 10.0 mi North 11.5 mph - N/A   Clear
8:58 AM 34.0 °F 25.0 °F -26.0 °F 7% 29.94 in 9.0 mi North 12.7 mph - N/A   Clear
9:58 AM 37.9 °F 32.1 °F -20.9 °F 7% 29.95 in 10.0 mi North 8.1 mph - N/A   Clear
10:58 AM 42.1 °F 37.7 °F -15.0 °F 9% 29.97 in 10.0 mi North 6.9 mph - N/A   Clear
11:58 AM 45.0 °F 40.6 °F -11.0 °F 9% 29.97 in 9.0 mi NNW 8.1 mph - N/A   Clear
12:58 PM 48.9 °F - -8.0 °F 9% 29.96 in 10.0 mi Calm Calm - N/A   Clear
1:58 PM 48.0 °F - -9.0 °F 9% 29.98 in 10.0 mi Variable 6.9 mph - N/A   Mostly Cloudy
2:58 PM 51.1 °F - -6.0 °F 9% 29.98 in 10.0 mi WNW 5.8 mph - N/A   Partly Cloudy
3:58 PM 50.0 °F - -5.1 °F 10% 29.97 in 10.0 mi West 6.9 mph - N/A   Overcast
4:58 PM 50.0 °F - -6.0 °F 10% 29.98 in 9.0 mi West 9.2 mph - N/A   Scattered Clouds
5:58 PM 48.9 °F - -6.0 °F 10% 29.98 in 9.0 mi NW 10.4 mph - N/A   Clear
6:58 PM 48.0 °F - -8.0 °F 10% 29.98 in 10.0 mi NNW 11.5 mph - N/A   Clear
7:58 PM 48.0 °F - -9.0 °F 9% 29.99 in 10.0 mi NW 8.1 mph - N/A   Clear
8:58 PM 46.9 °F - -11.9 °F 8% 29.99 in 10.0 mi NW 6.9 mph - N/A   Clear
9:58 PM 44.1 °F 41.5 °F -14.1 °F 8% 29.99 in 10.0 mi WNW 4.6 mph - N/A   Clear
10:58 PM 39.9 °F 33.9 °F -18.9 °F 8% 30.00 in 10.0 mi NNW 9.2 mph - N/A   Clear
11:58 PM 37.9 °F 32.1 °F -20.9 °F 7% 30.00 in 10.0 mi North 8.1 mph - N/A   Clear